Weather History for Mammoth, CA

Change the Weather History Date:

Wednesday, May 29, 2013

  Actual Average Record
Temperature  
Mean Temperature 56 °F -  
Max Temperature 69 °F 66 °F 80 °F (2001)
Min Temperature 44 °F 55 °F 23 °F (2011)
Degree Days  
Heating Degree Days 8    
Growing Degree Days 6 (Base 50)    
Moisture  
Dew Point 28 °F    
Average Humidity 37    
Maximum Humidity 76    
Minimum Humidity 15    
Precipitation  
Precipitation 0.00 in - - ()
Sea Level Pressure  
Sea Level Pressure 30.00 in    
Wind  
Wind Speed 12 mph (West)    
Max Wind Speed 28 mph    
Max Gust Speed 44 mph    
Visibility 10 miles    
Events Rain    
Averages and records for this station are not official NWS values.
T = Trace of Precipitation, MM = Missing Value Source: NWS Daily Summary

Daily Weather History Graph

Daily Weather History Graph

Search for Another Location

Airport:

Trip Planner

Search our weather history database for the weather conditions in past years. The results will help you decide how hot, cold, wet, or windy it might be!

Date:

Astronomy

May. 29, 2013 Rise Set
Actual Time 5:36 AM PDT 8:09 PM PDT
Civil Twilight 5:06 AM PDT 8:39 PM PDT
Nautical Twilight 4:28 AM PDT 9:17 PM PDT
Astronomical Twilight 3:46 AM PDT 9:59 PM PDT
Moon No Moon Rise 10:38 AM PDT (5/29)
Length of Visible Light 15h 33m
Length of Day
14h 32m
Waning Gibbous, 72% of the Moon is Illuminated
May 29
Waning Gibbous
May 31
Last Quarter
Jun 8
New
Jun 16
First Quarter
Jun 23
Full

Hourly Weather History & Observations

Time (PDT) Temp. Windchill Dew Point Humidity Pressure Visibility Wind Dir Wind Speed Gust Speed Precip Events Conditions
12:15 AM 46.4 °F 45.2 °F 32.0 °F 57% 30.01 in 10.0 mi NW 3.5 mph - N/A   Clear
12:35 AM 46.4 °F 43.5 °F 30.2 °F 53% 30.03 in 10.0 mi SSE 5.8 mph - N/A   Clear
12:55 AM 44.6 °F 41.4 °F 32.0 °F 61% 30.02 in 10.0 mi South 5.8 mph - N/A   Clear
1:15 AM 44.6 °F 43.1 °F 32.0 °F 61% 30.02 in 10.0 mi East 3.5 mph - N/A   Clear
1:35 AM 44.6 °F - 32.0 °F 61% 30.02 in 10.0 mi Calm Calm - N/A   Clear
1:55 AM 50.0 °F - 26.6 °F 40% 30.00 in 10.0 mi WSW 3.5 mph - N/A   Mostly Cloudy
2:15 AM 50.0 °F - 24.8 °F 37% 30.00 in 10.0 mi NW 3.5 mph - N/A   Overcast
2:35 AM 50.0 °F - 26.6 °F 40% 29.99 in 10.0 mi NNW 5.8 mph - N/A   Mostly Cloudy
2:55 AM 53.6 °F - 26.6 °F 35% 29.99 in 10.0 mi WNW 18.4 mph 24.2 mph N/A   Scattered Clouds
3:15 AM 53.6 °F - 26.6 °F 35% 29.99 in 10.0 mi NW 13.8 mph 26.5 mph N/A   Overcast
3:35 AM 51.8 °F - 26.6 °F 38% 29.98 in 10.0 mi NW 10.4 mph 16.1 mph N/A   Scattered Clouds
3:55 AM 51.8 °F - 30.2 °F 44% 29.99 in 10.0 mi NW 12.7 mph 19.6 mph N/A   Clear
4:15 AM 51.8 °F - 30.2 °F 44% 29.97 in 10.0 mi NW 12.7 mph 19.6 mph N/A   Clear
4:35 AM 55.4 °F - 32.0 °F 41% 29.97 in 10.0 mi West 18.4 mph 28.8 mph N/A   Scattered Clouds
4:55 AM 55.4 °F - 32.0 °F 41% 29.96 in 10.0 mi West 18.4 mph 33.4 mph N/A   Scattered Clouds
5:15 AM 53.6 °F - 37.4 °F 54% 29.97 in 10.0 mi West 23.0 mph 35.7 mph N/A   Scattered Clouds
5:35 AM 53.6 °F - 35.6 °F 51% 29.96 in 10.0 mi West 21.9 mph 31.1 mph N/A Rain Light Rain
5:55 AM 53.6 °F - 39.2 °F 58% 29.97 in 10.0 mi West 17.3 mph 31.1 mph N/A Rain Rain
6:15 AM 46.4 °F 39.8 °F 39.2 °F 76% 29.97 in 10.0 mi West 16.1 mph 24.2 mph N/A Rain Light Rain
6:35 AM 50.0 °F - 37.4 °F 62% 29.98 in 10.0 mi WNW 13.8 mph 25.3 mph N/A   Light Drizzle
6:55 AM 53.6 °F - 37.4 °F 54% 29.98 in 10.0 mi West 21.9 mph 33.4 mph N/A   Mostly Cloudy
7:15 AM 53.6 °F - 35.6 °F 51% 29.98 in 10.0 mi West 27.6 mph 38.0 mph N/A   Scattered Clouds
7:35 AM 55.4 °F - 37.4 °F 51% 29.98 in 10.0 mi West 27.6 mph 38.0 mph N/A   Mostly Cloudy
7:55 AM 55.4 °F - 35.6 °F 47% 29.97 in 10.0 mi WSW 27.6 mph 39.1 mph N/A   Scattered Clouds
8:15 AM 57.2 °F - 35.6 °F 44% 29.98 in 10.0 mi West 27.6 mph 38.0 mph N/A   Scattered Clouds
8:35 AM 57.2 °F - 33.8 °F 41% 29.99 in 10.0 mi WSW 21.9 mph 40.3 mph N/A   Clear
8:55 AM 57.2 °F - 30.2 °F 36% 29.99 in 10.0 mi WSW 24.2 mph 43.7 mph N/A   Scattered Clouds
9:15 AM 57.2 °F - 30.2 °F 36% 30.00 in 10.0 mi WSW 17.3 mph 40.3 mph N/A   Clear
9:35 AM 59.0 °F - 30.2 °F 34% 30.00 in 10.0 mi WSW 17.3 mph 32.2 mph N/A   Clear
9:55 AM 60.8 °F - 28.4 °F 29% 30.00 in 10.0 mi West 12.7 mph 20.7 mph N/A   Mostly Cloudy
10:15 AM 60.8 °F - 21.2 °F 22% 30.00 in 10.0 mi WSW 16.1 mph 31.1 mph N/A   Scattered Clouds
10:35 AM 62.6 °F - 21.2 °F 20% 30.00 in 10.0 mi WSW 11.5 mph 33.4 mph N/A   Clear
10:55 AM 62.6 °F - 21.2 °F 20% 30.00 in 10.0 mi NNW 11.5 mph 31.1 mph N/A   Clear
11:15 AM 62.6 °F - 23.0 °F 22% 30.02 in 10.0 mi NW 15.0 mph 35.7 mph N/A   Clear
11:35 AM 62.6 °F - 19.4 °F 19% 30.02 in 10.0 mi WNW 19.6 mph 36.8 mph N/A   Clear
11:55 AM 64.4 °F - 19.4 °F 18% 30.00 in 10.0 mi West 15.0 mph 32.2 mph N/A   Clear
12:15 PM 64.4 °F - 21.2 °F 19% 30.00 in 10.0 mi WSW 19.6 mph 35.7 mph N/A   Clear
12:35 PM 66.2 °F - 21.2 °F 18% 30.00 in 10.0 mi West 13.8 mph 34.5 mph N/A   Clear
12:55 PM 66.2 °F - 19.4 °F 17% 30.00 in 10.0 mi West 15.0 mph 29.9 mph N/A   Clear
1:15 PM 68.0 °F - 19.4 °F 16% 29.99 in 10.0 mi NW 19.6 mph 31.1 mph N/A   Clear
1:35 PM 68.0 °F - 21.2 °F 17% 29.98 in 10.0 mi West 17.3 mph 26.5 mph N/A   Clear
1:55 PM 68.0 °F - 17.6 °F 15% 29.98 in 10.0 mi WNW 17.3 mph 31.1 mph N/A   Clear
2:15 PM 68.0 °F - 17.6 °F 15% 29.98 in 10.0 mi WNW 10.4 mph 27.6 mph N/A   Clear
2:35 PM 69.8 °F - 19.4 °F 15% 29.99 in 10.0 mi West 18.4 mph 29.9 mph N/A   Clear
2:55 PM 68.0 °F - 19.4 °F 16% 29.99 in 10.0 mi West 15.0 mph 29.9 mph N/A   Clear
3:15 PM 68.0 °F - 21.2 °F 17% 29.99 in 10.0 mi WSW 16.1 mph 27.6 mph N/A   Clear
3:35 PM 68.0 °F - 19.4 °F 16% 29.99 in 10.0 mi WNW 17.3 mph 27.6 mph N/A   Clear
3:55 PM 68.0 °F - 19.4 °F 16% 29.99 in 10.0 mi West 21.9 mph 32.2 mph N/A   Clear
4:15 PM 69.8 °F - 19.4 °F 15% 29.99 in 10.0 mi West 15.0 mph 21.9 mph N/A   Clear
4:35 PM 69.8 °F - 21.2 °F 16% 29.99 in 10.0 mi West 18.4 mph 23.0 mph N/A   Clear
4:55 PM 68.0 °F - 19.4 °F 16% 29.99 in 10.0 mi West 11.5 mph 20.7 mph N/A   Clear
5:15 PM 68.0 °F - 21.2 °F 17% 29.99 in 10.0 mi West 18.4 mph - N/A   Clear
5:35 PM 68.0 °F - 21.2 °F 17% 29.99 in 10.0 mi West 11.5 mph 21.9 mph N/A   Clear
5:55 PM 68.0 °F - 21.2 °F 17% 29.99 in 10.0 mi WNW 12.7 mph 24.2 mph N/A   Clear
6:15 PM 68.0 °F - 21.2 °F 17% 29.99 in 10.0 mi West 11.5 mph 18.4 mph N/A   Clear
6:35 PM 66.2 °F - 23.0 °F 19% 29.99 in 10.0 mi WNW 13.8 mph 19.6 mph N/A   Clear
6:55 PM 64.4 °F - 24.8 °F 22% 29.99 in 10.0 mi WNW 12.7 mph 17.3 mph N/A   Clear
7:15 PM 64.4 °F - 28.4 °F 26% 29.99 in 10.0 mi NW 11.5 mph 18.4 mph N/A   Clear
7:35 PM 60.8 °F - 32.0 °F 34% 30.00 in 10.0 mi WNW 15.0 mph 23.0 mph N/A   Clear
7:55 PM 59.0 °F - 33.8 °F 39% 30.00 in 10.0 mi WNW 12.7 mph - N/A   Clear
8:15 PM 55.4 °F - 37.4 °F 51% 30.01 in 10.0 mi NW 10.4 mph - N/A   Clear
8:35 PM 53.6 °F - 35.6 °F 51% 30.01 in 10.0 mi NW 6.9 mph - N/A   Clear
8:55 PM 53.6 °F - 37.4 °F 54% 30.02 in 10.0 mi West 5.8 mph - N/A   Clear
9:15 PM 53.6 °F - 33.8 °F 47% 30.03 in 10.0 mi West 10.4 mph - N/A   Clear
9:35 PM 51.8 °F - 35.6 °F 54% 30.03 in 10.0 mi West 9.2 mph - N/A   Clear
9:55 PM 51.8 °F - 35.6 °F 54% 30.04 in 10.0 mi West 9.2 mph - N/A   Clear
10:15 PM 50.0 °F - 35.6 °F 58% 30.05 in 10.0 mi West 10.4 mph - N/A   Clear
10:35 PM 50.0 °F - 35.6 °F 58% 30.05 in 10.0 mi WNW 6.9 mph - N/A   Clear
10:55 PM 48.2 °F - 35.6 °F 62% 30.05 in 10.0 mi NNW 3.5 mph - N/A   Clear
11:15 PM 48.2 °F - 35.6 °F 62% 30.05 in 10.0 mi NW 4.6 mph - N/A   Clear
11:35 PM 44.6 °F 43.1 °F 30.2 °F 57% 30.05 in 10.0 mi SSE 3.5 mph - N/A   Clear
11:55 PM 44.6 °F 43.1 °F 32.0 °F 61% 30.05 in 10.0 mi ESE 3.5 mph - N/A   Clear